| time (UTC) | temp C | wind direction | speed KPH | gust KPH | rain 1hr cm | rain 24hr cm | rain mn cm | humidity % | barometer mb |
| 20260906210359 | 30 | 18 | 0.0 | 0.0 | 0.00 | 1.91 | 0.03 | 45 | 1015.5 |
| 20260906205828 | 29 | 18 | 0.0 | 0.0 | 0.00 | 1.91 | 0.03 | 46 | 1015.5 |
| 20260906205342 | 29 | 18 | 0.0 | 0.0 | 0.00 | 1.91 | 0.03 | 48 | 1015.5 |
| 20260906204839 | 29 | 18 | 0.0 | 0.0 | 0.00 | 1.91 | 0.03 | 47 | 1016.0 |
| 20260906204339 | 29 | 18 | 0.0 | 0.0 | 0.00 | 1.91 | 0.03 | 47 | 1016.0 |
| 20260906203829 | 28 | 18 | 0.0 | 0.0 | 0.00 | 1.91 | 0.03 | 46 | 1016.0 |
| 20260906203345 | 29 | 18 | 0.0 | 0.0 | 0.00 | 1.91 | 0.03 | 46 | 1016.1 |
| 20260906202903 | 29 | 18 | 0.0 | 0.0 | 0.00 | 1.91 | 0.03 | 45 | 1016.1 |
| 20260906202332 | 29 | 18 | 0.0 | 0.0 | 0.00 | 1.91 | 0.03 | 47 | 1016.1 |
| 20260906201901 | 29 | 18 | 0.0 | 0.0 | 0.00 | 1.91 | 0.03 | 48 | 1016.1 |
| 20260906201336 | 28 | 18 | 0.0 | 0.0 | 0.00 | 1.91 | 0.03 | 47 | 1016.1 |
| 20260906200839 | 28 | 18 | 0.0 | 0.0 | 0.00 | 1.91 | 0.03 | 46 | 1016.1 |
| 20260906200341 | 28 | 18 | 0.0 | 0.0 | 0.00 | 1.91 | 0.03 | 50 | 1016.2 |
| 20260906195836 | 28 | 18 | 0.0 | 0.0 | 0.00 | 1.91 | 0.03 | 50 | 1016.2 |
| 20260906195341 | 28 | 18 | 0.0 | 0.0 | 0.00 | 1.91 | 0.03 | 51 | 1016.2 |
| 20260906194840 | 28 | 18 | 0.0 | 0.0 | 0.00 | 1.91 | 0.03 | 52 | 1016.7 |
| 20260906194328 | 27 | 18 | 0.0 | 0.0 | 0.00 | 1.91 | 0.03 | 51 | 1016.7 |
| 20260906193850 | 27 | 18 | 0.0 | 0.0 | 0.00 | 1.91 | 0.03 | 52 | 1016.7 |
| 20260906193329 | 27 | 18 | 0.0 | 0.0 | 0.00 | 1.91 | 0.03 | 51 | 1016.8 |
| 20260906192905 | 27 | 18 | 0.0 | 0.0 | 0.00 | 1.91 | 0.03 | 51 | 1016.8 |
| 20260906192343 | 27 | 18 | 0.0 | 0.0 | 0.00 | 1.91 | 0.03 | 53 | 1016.8 |
| 20260906191821 | 27 | 18 | 0.0 | 0.0 | 0.00 | 1.91 | 0.03 | 54 | 1017.2 |
| 20260906191330 | 27 | 18 | 0.0 | 0.0 | 0.00 | 1.91 | 0.03 | 54 | 1017.2 |
| 20260906190829 | 27 | 18 | 0.0 | 0.0 | 0.00 | 1.91 | 0.03 | 54 | 1017.2 |
| 20260906190354 | 27 | 18 | 0.0 | 0.0 | 0.00 | 1.91 | 0.03 | 54 | 1017.3 |
| 20260906185824 | 27 | 18 | 0.0 | 0.0 | 0.00 | 1.91 | 0.03 | 58 | 1017.3 |
| 20260906185356 | 27 | 18 | 0.0 | 0.0 | 0.00 | 1.91 | 0.03 | 55 | 1017.3 |
| 20260906184830 | 26 | 18 | 0.0 | 0.0 | 0.00 | 1.91 | 0.03 | 57 | 1017.4 |
| 20260906184329 | 26 | 18 | 0.0 | 0.0 | 0.00 | 1.91 | 0.03 | 57 | 1017.4 |
| 20260906183834 | 26 | 18 | 0.0 | 0.0 | 0.00 | 1.91 | 0.03 | 57 | 1017.4 |
| 20260906183329 | 26 | 18 | 0.0 | 0.0 | 0.00 | 1.91 | 0.03 | 58 | 1017.8 |
| 20260906182841 | 26 | 18 | 0.0 | 0.0 | 0.00 | 1.91 | 0.03 | 58 | 1017.8 |
| 20260906182324 | 26 | 18 | 0.0 | 0.0 | 0.00 | 1.91 | 0.03 | 60 | 1017.8 |
| 20260906181822 | 26 | 18 | 0.0 | 0.0 | 0.00 | 1.91 | 0.03 | 61 | 1018.0 |
| 20260906181334 | 26 | 18 | 0.0 | 0.0 | 0.00 | 1.91 | 0.03 | 60 | 1018.0 |
| 20260906180909 | 25 | 18 | 0.0 | 0.0 | 0.00 | 1.91 | 0.03 | 59 | 1018.0 |
| 20260906180348 | 25 | 18 | 0.0 | 0.0 | 0.00 | 1.91 | 0.03 | 60 | 1018.4 |
| 20260906175840 | 25 | 18 | 0.0 | 0.0 | 0.00 | 1.91 | 0.03 | 60 | 1018.4 |
| 20260906175352 | 25 | 18 | 0.0 | 0.0 | 0.00 | 1.91 | 0.03 | 60 | 1018.4 |
| 20260906174844 | 25 | 18 | 0.0 | 0.0 | 0.00 | 1.91 | 0.03 | 62 | 1018.5 |
| 20260906174344 | 25 | 18 | 0.0 | 0.0 | 0.00 | 1.91 | 0.03 | 63 | 1018.5 |
| 20260906173822 | 24 | 18 | 0.0 | 0.0 | 0.00 | 1.91 | 0.03 | 64 | 1018.5 |
| 20260906173339 | 24 | 18 | 0.0 | 0.0 | 0.00 | 1.91 | 0.03 | 65 | 1018.7 |
| 20260906172840 | 24 | 18 | 0.0 | 0.0 | 0.00 | 1.91 | 0.03 | 64 | 1018.7 |
| 20260906172343 | 24 | 18 | 0.0 | 0.0 | 0.00 | 1.91 | 0.03 | 65 | 1018.7 |
| 20260906171850 | 23 | 18 | 0.0 | 0.0 | 0.00 | 1.91 | 0.03 | 66 | 1019.0 |
| 20260906171359 | 23 | 18 | 0.0 | 0.0 | 0.00 | 1.91 | 0.03 | 66 | 1019.0 |
| 20260906170835 | 23 | 18 | 0.0 | 0.0 | 0.00 | 1.91 | 0.03 | 67 | 1019.0 |
| 20260906170345 | 23 | 18 | 0.0 | 0.0 | 0.00 | 1.91 | 0.03 | 67 | 1019.1 |
| 20260906165839 | 23 | 18 | 0.0 | 0.0 | 0.00 | 1.91 | 0.03 | 68 | 1019.1 |
| 20260906165359 | 23 | 18 | 0.0 | 0.0 | 0.00 | 1.91 | 0.03 | 68 | 1019.1 |
| 20260906164855 | 22 | 18 | 0.0 | 0.0 | 0.00 | 1.91 | 0.03 | 68 | 1019.1 |
| 20260906164348 | 22 | 18 | 0.0 | 0.0 | 0.00 | 1.91 | 0.03 | 69 | 1019.1 |
| 20260906163837 | 22 | 18 | 0.0 | 0.0 | 0.00 | 1.91 | 0.03 | 70 | 1019.1 |
| 20260906163339 | 22 | 18 | 0.0 | 0.0 | 0.00 | 1.91 | 0.03 | 70 | 1019.3 |
| 20260906162848 | 22 | 18 | 0.0 | 0.0 | 0.00 | 1.91 | 0.03 | 71 | 1019.3 |
| 20260906162337 | 22 | 18 | 0.0 | 0.0 | 0.00 | 1.91 | 0.03 | 70 | 1019.3 |
| 20260906161856 | 21 | 18 | 0.0 | 0.0 | 0.00 | 1.91 | 0.03 | 70 | 1019.7 |
| 20260906161346 | 21 | 18 | 0.0 | 0.0 | 0.00 | 1.91 | 0.03 | 69 | 1019.7 |
| 20260906160845 | 21 | 18 | 0.0 | 0.0 | 0.00 | 1.91 | 0.03 | 72 | 1019.7 |
| 20260906160339 | 21 | 18 | 0.0 | 0.0 | 0.00 | 1.91 | 0.03 | 73 | 1019.6 |
| 20260906155859 | 21 | 18 | 0.0 | 0.0 | 0.00 | 1.91 | 0.03 | 72 | 1019.6 |
| 20260906155345 | 21 | 18 | 0.0 | 0.0 | 0.00 | 1.91 | 0.03 | 74 | 1019.6 |
| 20260906154827 | 20 | 18 | 0.0 | 0.0 | 0.00 | 1.91 | 0.03 | 74 | 1019.7 |
| 20260906154341 | 20 | 18 | 0.0 | 0.0 | 0.00 | 1.91 | 0.03 | 73 | 1019.7 |
| 20260906153842 | 20 | 18 | 0.0 | 0.0 | 0.00 | 1.91 | 0.03 | 73 | 1019.7 |
| 20260906153329 | 20 | 18 | 0.0 | 0.0 | 0.00 | 1.91 | 0.03 | 74 | 1019.6 |
| 20260906152829 | 20 | 18 | 0.0 | 0.0 | 0.03 | 1.91 | 0.03 | 75 | 1019.6 |
| 20260906152330 | 20 | 18 | 0.0 | 0.0 | 0.03 | 1.91 | 0.03 | 76 | 1019.6 |
| 20260906151833 | 20 | 18 | 0.0 | 0.0 | 0.03 | 1.91 | 0.03 | 76 | 1019.4 |
| 20260906151409 | 19 | 18 | 0.0 | 0.0 | 0.03 | 1.91 | 0.03 | 76 | 1019.4 |
| 20260906150852 | 19 | 18 | 0.0 | 0.0 | 0.03 | 1.91 | 0.03 | 77 | 1019.4 |
| 20260906150351 | 19 | 18 | 0.0 | 0.0 | 0.03 | 1.91 | 0.03 | 76 | 1019.7 |
| 20260906145855 | 19 | 18 | 0.0 | 0.0 | 0.03 | 1.91 | 0.03 | 75 | 1019.7 |
| 20260906145358 | 19 | 18 | 0.0 | 0.0 | 0.03 | 1.91 | 0.03 | 77 | 1019.7 |
| 20260906144822 | 19 | 18 | 0.0 | 0.0 | 0.03 | 1.91 | 0.03 | 77 | 1019.6 |
| 20260906144327 | 18 | 18 | 0.0 | 0.0 | 0.03 | 1.91 | 0.03 | 77 | 1019.6 |
| 20260906143823 | 18 | 18 | 0.0 | 0.0 | 0.03 | 1.91 | 0.03 | 78 | 1019.6 |
| 20260906143334 | 18 | 18 | 0.0 | 0.0 | 0.03 | 1.91 | 0.03 | 79 | 1019.6 |
| 20260906142836 | 18 | 18 | 0.0 | 0.0 | 0.00 | 1.88 | 0.00 | 81 | 1019.6 |
| 20260906142351 | 18 | 18 | 0.0 | 0.0 | 0.00 | 1.88 | 0.00 | 82 | 1019.6 |
| 20260906141845 | 17 | 18 | 0.0 | 0.0 | 0.00 | 1.88 | 0.00 | 84 | 1019.6 |
| 20260906141338 | 17 | 18 | 0.0 | 0.0 | 0.00 | 1.88 | 0.00 | 85 | 1019.6 |
| 20260906140839 | 17 | 18 | 0.0 | 0.0 | 0.00 | 1.88 | 0.00 | 87 | 1019.6 |
| 20260906140329 | 16 | 18 | 0.0 | 0.0 | 0.00 | 1.88 | 0.00 | 89 | 1019.2 |
| 20260906135901 | 16 | 18 | 0.0 | 0.0 | 0.00 | 1.88 | 0.00 | 90 | 1019.2 |
| 20260906135325 | 16 | 18 | 0.0 | 0.0 | 0.00 | 1.88 | 0.00 | 91 | 1019.2 |
| 20260906134858 | 16 | 18 | 0.0 | 0.0 | 0.00 | 1.88 | 0.00 | 92 | 1019.2 |
| 20260906134334 | 15 | 18 | 0.0 | 0.0 | 0.00 | 1.88 | 0.00 | 92 | 1019.2 |
| 20260906133847 | 15 | 18 | 0.0 | 0.0 | 0.00 | 1.88 | 0.00 | 92 | 1019.2 |
| 20260906133326 | 15 | 18 | 0.0 | 0.0 | 0.00 | 1.88 | 0.00 | 91 | 1019.1 |
| 20260906132853 | 15 | 18 | 0.0 | 0.0 | 0.00 | 1.88 | 0.00 | 91 | 1019.1 |
| 20260906132345 | 15 | 18 | 0.0 | 0.0 | 0.00 | 1.88 | 0.00 | 91 | 1019.1 |
| 20260906131849 | 15 | 18 | 0.0 | 0.0 | 0.00 | 1.88 | 0.00 | 91 | 1019.2 |
| 20260906131336 | 15 | 18 | 0.0 | 0.0 | 0.00 | 1.88 | 0.00 | 91 | 1019.2 |
| 20260906130828 | 15 | 18 | 0.0 | 0.0 | 0.00 | 1.88 | 0.00 | 91 | 1019.2 |
| 20260906130335 | 15 | 18 | 0.0 | 0.0 | 0.00 | 1.88 | 0.00 | 91 | 1019.1 |
| 20260906125826 | 15 | 18 | 0.0 | 0.0 | 0.00 | 1.88 | 0.00 | 91 | 1019.1 |
| 20260906125356 | 15 | 18 | 0.0 | 0.0 | 0.00 | 1.88 | 0.00 | 91 | 1019.1 |
| 20260906124851 | 15 | 18 | 0.0 | 0.0 | 0.00 | 1.88 | 0.00 | 91 | 1019.1 |
| 20260906124325 | 15 | 18 | 0.0 | 0.0 | 0.00 | 1.88 | 0.00 | 91 | 1019.1 |
| 20260906123829 | 15 | 18 | 0.0 | 0.0 | 0.00 | 1.88 | 0.00 | 91 | 1019.1 |
| 20260906123329 | 15 | 18 | 0.0 | 0.0 | 0.00 | 1.88 | 0.00 | 90 | 1018.9 |
| 20260906122831 | 15 | 18 | 0.0 | 0.0 | 0.00 | 1.88 | 0.00 | 90 | 1018.9 |
| 20260906122330 | 15 | 18 | 0.0 | 0.0 | 0.00 | 1.88 | 0.00 | 89 | 1018.9 |
| 20260906121912 | 15 | 18 | 0.0 | 0.0 | 0.00 | 1.88 | 0.00 | 89 | 1018.7 |
| 20260906121351 | 15 | 18 | 0.0 | 0.0 | 0.00 | 1.88 | 0.00 | 89 | 1018.7 |
| 20260906120853 | 15 | 18 | 0.0 | 0.0 | 0.00 | 1.88 | 0.00 | 89 | 1018.7 |
| 20260906120328 | 15 | 18 | 0.0 | 0.0 | 0.00 | 1.88 | 0.00 | 89 | 1018.5 |
| 20260906115845 | 15 | 18 | 0.0 | 0.0 | 0.00 | 1.88 | 0.00 | 89 | 1018.5 |
| 20260906115341 | 15 | 18 | 0.0 | 0.0 | 0.00 | 1.88 | 0.00 | 89 | 1018.5 |
| 20260906114857 | 15 | 18 | 0.0 | 0.0 | 0.00 | 1.88 | 0.00 | 89 | 1018.5 |
| 20260906114355 | 15 | 18 | 0.0 | 0.0 | 0.00 | 1.88 | 0.00 | 89 | 1018.5 |
| 20260906113839 | 15 | 18 | 0.0 | 0.0 | 0.00 | 1.88 | 0.00 | 88 | 1018.5 |
| 20260906113331 | 15 | 18 | 0.0 | 0.0 | 0.00 | 1.88 | 0.00 | 87 | 1018.5 |
| 20260906112834 | 16 | 18 | 0.0 | 0.0 | 0.00 | 1.88 | 0.00 | 88 | 1018.5 |
| 20260906112327 | 16 | 18 | 0.0 | 0.0 | 0.00 | 1.88 | 0.00 | 87 | 1018.5 |
| 20260906111901 | 16 | 18 | 0.0 | 0.0 | 0.00 | 1.88 | 0.00 | 87 | 1018.8 |
| 20260906111330 | 16 | 18 | 0.0 | 0.0 | 0.00 | 1.88 | 0.00 | 87 | 1018.8 |
| 20260906110841 | 16 | 18 | 0.0 | 0.0 | 0.00 | 1.88 | 0.00 | 88 | 1018.8 |
| 20260906110340 | 16 | 18 | 0.0 | 0.0 | 0.00 | 1.88 | 0.00 | 87 | 1018.6 |
| 20260906105838 | 16 | 18 | 0.0 | 0.0 | 0.00 | 1.88 | 0.00 | 88 | 1018.6 |
| 20260906105344 | 16 | 18 | 0.0 | 0.0 | 0.00 | 1.88 | 0.00 | 88 | 1018.6 |
| 20260906104844 | 16 | 18 | 0.0 | 0.0 | 0.00 | 1.88 | 0.00 | 88 | 1018.5 |
| 20260906104350 | 16 | 18 | 0.0 | 0.0 | 0.00 | 1.88 | 0.00 | 88 | 1018.5 |
| 20260906103843 | 16 | 18 | 0.0 | 0.0 | 0.00 | 1.88 | 0.00 | 88 | 1018.5 |
| 20260906103341 | 16 | 18 | 0.0 | 0.0 | 0.00 | 1.88 | 0.00 | 88 | 1018.5 |
| 20260906102837 | 16 | 18 | 0.0 | 0.0 | 0.00 | 1.88 | 0.00 | 88 | 1018.5 |
| 20260906102335 | 16 | 18 | 0.0 | 0.0 | 0.00 | 1.88 | 0.00 | 88 | 1018.5 |
| 20260906101843 | 16 | 18 | 0.0 | 0.0 | 0.00 | 1.88 | 0.00 | 88 | 1018.5 |
| 20260906101356 | 16 | 18 | 0.0 | 0.0 | 0.00 | 1.88 | 0.00 | 88 | 1018.5 |
| 20260906100838 | 16 | 18 | 0.0 | 0.0 | 0.00 | 1.88 | 0.00 | 87 | 1018.5 |
| 20260906100336 | 16 | 18 | 0.0 | 0.0 | 0.00 | 1.88 | 0.00 | 88 | 1018.5 |
| 20260906095833 | 16 | 18 | 0.0 | 0.0 | 0.00 | 1.88 | 0.00 | 88 | 1018.5 |
| 20260906095339 | 16 | 18 | 0.0 | 0.0 | 0.00 | 1.88 | 0.00 | 88 | 1018.5 |
| 20260906094851 | 16 | 18 | 0.0 | 0.0 | 0.00 | 1.88 | 0.00 | 88 | 1018.5 |
| 20260906094355 | 16 | 18 | 0.0 | 0.0 | 0.00 | 1.88 | 0.00 | 89 | 1018.5 |
| 20260906093850 | 16 | 18 | 0.0 | 0.0 | 0.00 | 1.88 | 0.00 | 89 | 1018.5 |
| 20260906093328 | 16 | 18 | 0.0 | 0.0 | 0.00 | 1.88 | 0.00 | 90 | 1018.5 |
| 20260906092841 | 16 | 18 | 0.0 | 0.0 | 0.00 | 1.88 | 0.00 | 90 | 1018.5 |
| 20260906092338 | 16 | 18 | 0.0 | 0.0 | 0.00 | 1.88 | 0.00 | 90 | 1018.5 |
| 20260906091827 | 16 | 18 | 0.0 | 0.0 | 0.00 | 1.88 | 0.00 | 90 | 1018.5 |
| 20260906091345 | 17 | 18 | 0.0 | 0.0 | 0.00 | 1.88 | 0.00 | 90 | 1018.5 |
| 20260906090837 | 17 | 18 | 0.0 | 0.0 | 0.00 | 1.88 | 0.00 | 91 | 1018.5 |
| 20260906090352 | 17 | 18 | 0.0 | 0.0 | 0.00 | 1.88 | 0.00 | 91 | 1018.2 |
| 20260906085850 | 17 | 18 | 0.0 | 0.0 | 0.00 | 1.88 | 0.00 | 91 | 1018.2 |
| 20260906085335 | 17 | 18 | 0.0 | 0.0 | 0.00 | 1.88 | 0.00 | 90 | 1018.2 |
| 20260906084836 | 17 | 18 | 0.0 | 0.0 | 0.00 | 1.88 | 0.00 | 90 | 1018.4 |
| 20260906084321 | 17 | 18 | 0.0 | 0.0 | 0.00 | 1.88 | 0.00 | 90 | 1018.4 |
| 20260906083823 | 17 | 18 | 0.0 | 0.0 | 0.00 | 1.88 | 0.00 | 90 | 1018.4 |
| 20260906083336 | 17 | 18 | 0.0 | 0.0 | 0.00 | 1.88 | 0.00 | 90 | 1018.5 |
| 20260906082833 | 17 | 18 | 0.0 | 0.0 | 0.00 | 1.88 | 0.00 | 90 | 1018.5 |
| 20260906082328 | 17 | 18 | 0.0 | 0.0 | 0.00 | 1.88 | 0.00 | 90 | 1018.5 |
| 20260906081841 | 17 | 18 | 0.0 | 0.0 | 0.00 | 1.88 | 0.00 | 90 | 1018.3 |
| 20260906081343 | 17 | 18 | 0.0 | 0.0 | 0.00 | 1.88 | 0.00 | 90 | 1018.3 |
| 20260906080842 | 17 | 18 | 0.0 | 0.0 | 0.00 | 1.88 | 0.00 | 90 | 1018.3 |
| 20260906080415 | 17 | 18 | 0.0 | 0.0 | 0.00 | 1.88 | 0.00 | 90 | 1018.1 |
| 20260906075833 | 17 | 18 | 0.0 | 0.0 | 0.00 | 1.88 | 0.00 | 90 | 1018.1 |
| 20260906075340 | 17 | 18 | 0.0 | 0.0 | 0.00 | 1.88 | 0.00 | 89 | 1018.1 |
| 20260906074827 | 17 | 18 | 0.0 | 0.0 | 0.00 | 1.88 | 0.00 | 89 | 1018.0 |
| 20260906074331 | 17 | 18 | 0.0 | 0.0 | 0.00 | 1.88 | 0.00 | 89 | 1018.0 |
| 20260906073909 | 17 | 18 | 0.0 | 0.0 | 0.00 | 1.88 | 0.00 | 88 | 1018.0 |
| 20260906073327 | 17 | 18 | 0.0 | 0.0 | 0.00 | 1.88 | 0.00 | 88 | 1018.0 |
| 20260906072902 | 17 | 18 | 0.0 | 0.0 | 0.00 | 1.88 | 0.00 | 88 | 1018.0 |
| 20260906072339 | 17 | 18 | 0.0 | 0.0 | 0.00 | 1.88 | 0.00 | 87 | 1018.0 |
| 20260906071853 | 18 | 18 | 0.0 | 0.0 | 0.00 | 1.88 | 0.00 | 87 | 1017.9 |
| 20260906071348 | 18 | 18 | 0.0 | 0.0 | 0.00 | 1.88 | 0.00 | 86 | 1017.9 |
| 20260906070838 | 18 | 18 | 0.0 | 0.0 | 0.00 | 1.88 | 0.00 | 85 | 1017.9 |
| 20260906070343 | 18 | 18 | 0.0 | 0.0 | 0.00 | 1.88 | 0.00 | 85 | 1017.6 |
| 20260906065838 | 18 | 18 | 0.0 | 0.0 | 0.00 | 1.88 | 0.00 | 84 | 1017.6 |
| 20260906065340 | 18 | 18 | 0.0 | 0.0 | 0.00 | 1.88 | 0.00 | 83 | 1017.6 |
| 20260906064838 | 18 | 18 | 0.0 | 0.0 | 0.00 | 1.88 | 1.88 | 82 | 1017.3 |
| 20260906064357 | 18 | 18 | 0.0 | 0.0 | 0.00 | 1.88 | 1.88 | 81 | 1017.3 |
| 20260906063849 | 18 | 18 | 0.0 | 0.0 | 0.00 | 1.88 | 1.88 | 81 | 1017.3 |
| 20260906063348 | 18 | 18 | 0.0 | 0.0 | 0.00 | 1.88 | 1.88 | 80 | 1017.5 |
| 20260906062851 | 18 | 18 | 0.0 | 0.0 | 0.00 | 1.88 | 1.88 | 80 | 1017.5 |
| 20260906062347 | 18 | 18 | 0.0 | 0.0 | 0.00 | 1.88 | 1.88 | 79 | 1017.5 |
| 20260906061919 | 18 | 18 | 0.0 | 0.0 | 0.00 | 1.88 | 1.88 | 79 | 1017.3 |
| 20260906061356 | 18 | 18 | 0.0 | 0.0 | 0.00 | 1.88 | 1.88 | 79 | 1017.3 |
| 20260906060832 | 18 | 18 | 0.0 | 0.0 | 0.00 | 1.88 | 1.88 | 79 | 1017.3 |
| 20260906060329 | 18 | 18 | 0.0 | 0.0 | 0.00 | 1.88 | 1.88 | 79 | 1017.3 |
| 20260906055824 | 18 | 18 | 0.0 | 0.0 | 0.00 | 1.88 | 1.88 | 79 | 1017.3 |
| 20260906055323 | 18 | 18 | 0.0 | 0.0 | 0.00 | 1.88 | 1.88 | 80 | 1017.3 |
| 20260906054858 | 18 | 18 | 0.0 | 0.0 | 0.00 | 1.88 | 1.88 | 80 | 1017.3 |
| 20260906054359 | 18 | 18 | 0.0 | 0.0 | 0.00 | 1.88 | 1.88 | 80 | 1017.3 |
| 20260906053833 | 18 | 18 | 0.0 | 0.0 | 0.00 | 1.88 | 1.88 | 80 | 1017.3 |
| 20260906053330 | 18 | 18 | 0.0 | 0.0 | 0.00 | 1.88 | 1.88 | 80 | 1017.3 |
| 20260906052827 | 18 | 18 | 0.0 | 0.0 | 0.00 | 1.88 | 1.88 | 80 | 1017.3 |
| 20260906052331 | 18 | 18 | 0.0 | 0.0 | 0.00 | 1.88 | 1.88 | 80 | 1017.3 |
| 20260906051902 | 18 | 18 | 0.0 | 0.0 | 0.00 | 1.88 | 1.88 | 79 | 1017.3 |
| 20260906051342 | 18 | 18 | 0.0 | 0.0 | 0.00 | 1.88 | 1.88 | 78 | 1017.3 |
| 20260906050842 | 18 | 18 | 0.0 | 0.0 | 0.00 | 1.88 | 1.88 | 78 | 1017.3 |
| 20260906050337 | 18 | 18 | 0.0 | 0.0 | 0.00 | 1.88 | 1.88 | 80 | 1017.4 |
| 20260906045829 | 18 | 18 | 0.0 | 0.0 | 0.00 | 1.88 | 1.88 | 80 | 1017.4 |
| 20260906045341 | 18 | 18 | 0.0 | 0.0 | 0.00 | 1.88 | 1.88 | 80 | 1017.4 |
| 20260906044838 | 18 | 18 | 0.0 | 0.0 | 0.00 | 1.88 | 1.88 | 81 | 1017.3 |
| 20260906044331 | 18 | 18 | 0.0 | 0.0 | 0.00 | 1.88 | 1.88 | 81 | 1017.3 |
| 20260906043834 | 18 | 18 | 0.0 | 0.0 | 0.00 | 1.88 | 1.88 | 80 | 1017.3 |
| 20260906043348 | 18 | 18 | 0.0 | 0.0 | 0.00 | 1.88 | 1.88 | 81 | 1017.4 |
| 20260906042842 | 18 | 18 | 0.0 | 0.0 | 0.00 | 1.88 | 1.88 | 81 | 1017.4 |
| 20260906042337 | 18 | 18 | 0.0 | 0.0 | 0.00 | 1.88 | 1.88 | 81 | 1017.4 |
| 20260906041833 | 18 | 18 | 0.0 | 0.0 | 0.00 | 1.88 | 1.88 | 81 | 1017.5 |
| 20260906041354 | 18 | 18 | 0.0 | 0.0 | 0.00 | 1.88 | 1.88 | 80 | 1017.5 |
| 20260906040831 | 18 | 18 | 0.0 | 0.0 | 0.00 | 1.88 | 1.88 | 79 | 1017.5 |
| 20260906040347 | 18 | 18 | 0.0 | 0.0 | 0.00 | 1.88 | 1.88 | 79 | 1017.4 |
| 20260906035825 | 18 | 18 | 0.0 | 0.0 | 0.00 | 1.88 | 1.88 | 78 | 1017.4 |
| 20260906035343 | 18 | 18 | 0.0 | 0.0 | 0.00 | 1.88 | 1.88 | 76 | 1017.4 |
| 20260906034842 | 18 | 18 | 0.0 | 0.0 | 0.00 | 1.88 | 1.88 | 76 | 1017.3 |
| 20260906034412 | 18 | 18 | 0.0 | 0.0 | 0.00 | 1.88 | 1.88 | 75 | 1017.3 |
| 20260906033849 | 18 | 18 | 0.0 | 0.0 | 0.00 | 1.88 | 1.88 | 75 | 1017.3 |
| 20260906033326 | 18 | 18 | 0.0 | 0.0 | 0.00 | 1.88 | 1.88 | 75 | 1017.1 |
| 20260906032838 | 19 | 18 | 0.0 | 0.0 | 0.00 | 1.88 | 1.88 | 74 | 1017.1 |
| 20260906032333 | 19 | 18 | 0.0 | 0.0 | 0.00 | 1.88 | 1.88 | 72 | 1017.1 |
| 20260906031833 | 19 | 18 | 0.0 | 0.0 | 0.00 | 1.88 | 1.88 | 70 | 1016.8 |
| 20260906031414 | 19 | 18 | 0.0 | 0.0 | 0.00 | 1.88 | 1.88 | 70 | 1016.8 |
| 20260906030848 | 19 | 18 | 0.0 | 0.0 | 0.00 | 1.88 | 1.88 | 69 | 1016.8 |
| 20260906030325 | 19 | 18 | 0.0 | 0.0 | 0.05 | 1.88 | 1.88 | 68 | 1016.5 |
| 20260906025837 | 19 | 18 | 0.0 | 0.0 | 0.13 | 1.88 | 1.88 | 67 | 1016.5 |
| 20260906025358 | 19 | 18 | 0.0 | 0.0 | 0.13 | 1.88 | 1.88 | 67 | 1016.5 |
| 20260906024838 | 20 | 18 | 0.0 | 0.0 | 0.15 | 1.88 | 1.88 | 67 | 1016.3 |
| 20260906024337 | 20 | 18 | 0.0 | 0.0 | 0.23 | 1.88 | 1.88 | 67 | 1016.3 |
| 20260906023842 | 20 | 18 | 0.0 | 0.0 | 0.33 | 1.88 | 1.88 | 66 | 1016.3 |
| 20260906023336 | 20 | 18 | 0.0 | 0.0 | 1.04 | 1.88 | 1.88 | 67 | 1016.2 |
| 20260906022918 | 20 | 18 | 0.0 | 0.0 | 1.09 | 1.88 | 1.88 | 68 | 1016.2 |
| 20260906022358 | 20 | 18 | 0.0 | 0.0 | 1.12 | 1.88 | 1.88 | 65 | 1016.2 |
| 20260906021836 | 20 | 18 | 0.0 | 0.0 | 1.12 | 1.88 | 1.88 | 63 | 1015.8 |
| 20260906021343 | 20 | 18 | 0.0 | 0.0 | 1.17 | 1.88 | 1.88 | 62 | 1015.8 |
| 20260906020831 | 21 | 18 | 0.0 | 0.0 | 1.22 | 1.88 | 1.88 | 61 | 1015.8 |
| 20260906020324 | 20 | 18 | 0.0 | 0.0 | 1.17 | 1.78 | 1.78 | 67 | 1016.6 |
| 20260906015831 | 19 | 18 | 0.0 | 0.0 | 1.14 | 1.75 | 1.75 | 66 | 1016.6 |
| 20260906015329 | 18 | 18 | 0.0 | 0.0 | 1.17 | 1.73 | 1.73 | 67 | 1016.6 |
| 20260906014839 | 19 | 18 | 0.0 | 0.0 | 1.17 | 1.73 | 1.73 | 66 | 1016.7 |
| 20260906014338 | 20 | 18 | 0.0 | 0.0 | 1.14 | 1.65 | 1.65 | 60 | 1016.7 |
| 20260906013837 | 21 | 18 | 0.0 | 0.0 | 0.97 | 1.45 | 1.52 | 59 | 1016.7 |
| 20260906013352 | 21 | 18 | 0.0 | 0.0 | 0.36 | 0.81 | 0.81 | 68 | 1016.2 |
| 20260906012825 | 22 | 18 | 0.0 | 0.0 | 0.41 | 0.79 | 0.79 | 65 | 1016.2 |
| 20260906012321 | 22 | 18 | 0.0 | 0.0 | 0.56 | 0.76 | 0.76 | 62 | 1016.2 |
| 20260906011824 | 22 | 18 | 0.0 | 0.0 | 0.76 | 0.76 | 0.76 | 62 | 1016.2 |
| 20260906011355 | 22 | 18 | 0.0 | 0.0 | 0.71 | 0.71 | 0.71 | 65 | 1016.2 |
| 20260906010840 | 22 | 18 | 0.0 | 0.0 | 0.66 | 0.66 | 0.66 | 63 | 1016.2 |
| 20260906010339 | 23 | 18 | 0.0 | 0.0 | 0.61 | 0.61 | 0.61 | 62 | 1016.3 |
| 20260906005844 | 24 | 18 | 0.0 | 0.0 | 0.61 | 0.61 | 0.61 | 58 | 1016.3 |
| 20260906005337 | 23 | 18 | 0.0 | 0.0 | 0.56 | 0.56 | 0.56 | 50 | 1016.3 |
| 20260906004914 | 23 | 18 | 0.0 | 0.0 | 0.53 | 0.53 | 0.53 | 55 | 1016.7 |
| 20260906004400 | 23 | 18 | 0.0 | 0.0 | 0.51 | 0.51 | 0.51 | 54 | 1016.7 |
| 20260906003821 | 23 | 18 | 0.0 | 0.0 | 0.48 | 0.48 | 0.48 | 54 | 1016.7 |
| 20260906003342 | 23 | 18 | 0.0 | 0.0 | 0.46 | 0.46 | 0.46 | 55 | 1016.1 |
| 20260906002854 | 23 | 18 | 0.0 | 0.0 | 0.38 | 0.38 | 0.38 | 55 | 1016.1 |
| 20260906002329 | 28 | 18 | 0.0 | 0.0 | 0.20 | 0.20 | 0.20 | 43 | 1016.1 |
| 20260906001839 | 30 | 18 | 0.0 | 0.0 | 0.00 | 0.00 | 0.00 | 32 | 1015.1 |
| 20260906001402 | 30 | 18 | 0.0 | 0.0 | 0.00 | 0.00 | 0.00 | 30 | 1015.1 |
| 20260906000821 | 30 | 18 | 0.0 | 0.0 | 0.00 | 0.00 | 0.00 | 30 | 1015.1 |
| 20260906000326 | 30 | 18 | 0.0 | 0.0 | 0.00 | 0.00 | 0.00 | 30 | 1015.2 |
| 20260905235856 | 31 | 18 | 0.0 | 0.0 | 0.00 | 0.00 | 0.00 | 29 | 1015.2 |
| 20260905235350 | 31 | 18 | 0.0 | 0.0 | 0.00 | 0.00 | 0.00 | 29 | 1015.2 |
| 20260905234851 | 31 | 18 | 0.0 | 0.0 | 0.00 | 0.00 | 0.00 | 29 | 1015.0 |
| 20260905234330 | 31 | 18 | 0.0 | 0.0 | 0.00 | 0.00 | 0.00 | 28 | 1015.0 |
| 20260905233835 | 31 | 18 | 0.0 | 0.0 | 0.00 | 0.00 | 0.00 | 28 | 1015.0 |
| 20260905233344 | 32 | 18 | 0.0 | 0.0 | 0.00 | 0.00 | 0.00 | 26 | 1015.1 |
| 20260905232836 | 32 | 18 | 0.0 | 0.0 | 0.00 | 0.00 | 0.00 | 25 | 1015.1 |
| 20260905232357 | 32 | 18 | 0.0 | 0.0 | 0.00 | 0.00 | 0.00 | 24 | 1015.1 |
| 20260905231840 | 33 | 18 | 0.0 | 0.0 | 0.00 | 0.00 | 0.00 | 24 | 1014.9 |
| 20260905231352 | 33 | 18 | 0.0 | 0.0 | 0.00 | 0.00 | 0.00 | 24 | 1014.9 |
| 20260905230852 | 32 | 18 | 0.0 | 0.0 | 0.00 | 0.00 | 0.00 | 25 | 1014.9 |
| 20260905230326 | 33 | 18 | 0.0 | 0.0 | 0.00 | 0.00 | 0.00 | 26 | 1014.9 |
| 20260905225840 | 33 | 18 | 0.0 | 0.0 | 0.00 | 0.00 | 0.00 | 25 | 1014.9 |
| 20260905225332 | 33 | 18 | 0.0 | 0.0 | 0.00 | 0.00 | 0.00 | 25 | 1014.9 |
| 20260905224835 | 33 | 18 | 0.0 | 0.0 | 0.00 | 0.00 | 0.00 | 25 | 1014.9 |
| 20260905224357 | 33 | 18 | 0.0 | 0.0 | 0.00 | 0.00 | 0.00 | 24 | 1014.9 |
| 20260905223838 | 33 | 18 | 0.0 | 0.0 | 0.00 | 0.00 | 0.00 | 26 | 1014.9 |
| 20260905223349 | 33 | 18 | 0.0 | 0.0 | 0.00 | 0.00 | 0.00 | 25 | 1015.0 |
| 20260905222843 | 32 | 18 | 0.0 | 0.0 | 0.00 | 0.00 | 0.00 | 26 | 1015.0 |
| 20260905222341 | 32 | 18 | 0.0 | 0.0 | 0.00 | 0.00 | 0.00 | 25 | 1015.0 |
| 20260905221900 | 32 | 18 | 0.0 | 0.0 | 0.00 | 0.00 | 0.00 | 25 | 1015.0 |
| 20260905221333 | 32 | 18 | 0.0 | 0.0 | 0.00 | 0.00 | 0.00 | 25 | 1015.0 |
| 20260905220830 | 33 | 18 | 0.0 | 0.0 | 0.00 | 0.00 | 0.00 | 24 | 1015.0 |
| 20260905220346 | 33 | 18 | 0.0 | 0.0 | 0.00 | 0.00 | 0.00 | 24 | 1015.3 |
| 20260905215843 | 33 | 18 | 0.0 | 0.0 | 0.00 | 0.00 | 0.00 | 24 | 1015.3 |
| 20260905215402 | 33 | 18 | 0.0 | 0.0 | 0.00 | 0.00 | 0.00 | 24 | 1015.3 |
| 20260905214914 | 33 | 18 | 0.0 | 0.0 | 0.00 | 0.00 | 0.00 | 25 | 1015.5 |
| 20260905214325 | 33 | 18 | 0.0 | 0.0 | 0.00 | 0.00 | 0.00 | 24 | 1015.5 |
| 20260905213858 | 33 | 18 | 0.0 | 0.0 | 0.00 | 0.00 | 0.00 | 24 | 1015.5 |
| 20260905213333 | 33 | 18 | 0.0 | 0.0 | 0.00 | 0.00 | 0.00 | 23 | 1015.5 |
| 20260905212832 | 33 | 18 | 0.0 | 0.0 | 0.00 | 0.00 | 0.00 | 24 | 1015.5 |
| 20260905212326 | 32 | 18 | 0.0 | 0.0 | 0.00 | 0.00 | 0.00 | 24 | 1015.5 |
| 20260905211829 | 32 | 18 | 0.0 | 0.0 | 0.00 | 0.00 | 0.00 | 24 | 1016.0 |
| 20260905211328 | 32 | 18 | 0.0 | 0.0 | 0.00 | 0.00 | 0.00 | 24 | 1016.0 |
| 20260905210829 | 32 | 18 | 0.0 | 0.0 | 0.00 | 0.00 | 0.00 | 24 | 1016.0 |